Regional Weather Roundup
Issued by NWS

Home | Current Version | Previous Version | Graphics & Text | Print | Product List | Glossary On
Versions: 1 2 3 4 5 6 7 8 9 10 11 12 13 14 15 16 17 18 19 20 21 22 23 24 25 26 27
000
ASUS45 KSLC 261010
RWRUT

UTAH REGIONAL WEATHER ROUNDUP
NATIONAL WEATHER SERVICE SALT LAKE CITY UT
400 AM MDT WED JUL 26 2017

UTZ001>011-023>025-261100-

NORTHERN UTAH

CITY           SKY/WX    TMP DP  RH WIND       PRES   REMARKS
BRIGHAM CITY   CLOUDY    71  56  58 CALM      30.13S
HILL AFB       NOT AVBL
LOGAN          MOCLDY    64  56  75 CALM      30.15R
OGDEN          CLOUDY    71  61  70 SE13      30.15R
SALT LAKE CITY LGT RAIN  71  66  84 N15       30.15R
TOOELE VALLEY  CLOUDY    68  59  73 SE6       30.16R
WENDOVER       MOCLDY    71  57  61 S12       30.15R
HEBER CITY     CLOUDY    61  55  82 CALM      30.23S
WEST JORDAN    CLOUDY    65  65 100 SE3       30.20R

$$

UTZ011>015-024>027-261100-

CENTRAL/NORTHEAST UTAH

CITY           SKY/WX    TMP DP  RH WIND       PRES   REMARKS
PROVO AIRPORT  NOT AVBL
MOAB/CANYONLAN PTCLDY    67  67 100 CALM      30.15R
DELTA          MOCLDY    64  59  82 E3        30.20S
PRICE          CLEAR     59  59 100 CALM      30.25R
ROOSEVELT      CLOUDY    64  61  88 CALM      30.23S
VERNAL         CLOUDY    65  64  97 CALM      30.22R

$$

UTZ013>016-019>022-027-261100-

SOUTHERN UTAH

CITY           SKY/WX    TMP DP  RH WIND       PRES   REMARKS
BRYCE CANYON   CLEAR     53  53 100 W7        30.38S
CEDAR CITY     CLEAR     59  57  93 SW5       30.25R
MILFORD        CLEAR     65  59  81 SW12      30.21R
ST GEORGE      CLOUDY    71  67  87 E6        30.12S
HANKSVILLE     CLEAR     64  63  94 CALM      30.19R
BLANDING       CLEAR     59  57  94 N6        30.33R

$$

REGIONAL REPORTS     COLORADO/ARIZONA

CITY           SKY/WX    TMP DP  RH WIND       PRES   REMARKS
CRAIG, CO      CLOUDY    62  59  90 CALM      30.27R
GRAND JUNCTION CLOUDY    67  67 100 CALM      30.18R
RIFLE, CO      LGT RAIN  64  62  93 W3        30.23R
MONTROSE, CO   CLOUDY    64  61  90 S6        30.26R
CORTEZ, CO     CLEAR     57  56  96 E3        30.27R
COLORADO CITY    N/A     63  61  94 CALM      30.26S
PAGE, AZ       CLEAR     70  62  76 S6        30.18R
GRAND CANYON   PTCLDY    51  51 100 NE3       30.35F
KINGMAN, AZ    CLOUDY    68  64  87 NE5       30.14R
FLAGSTAFF, AZ  CLEAR     53  53 100 CALM      30.37F

$$

REGIONAL REPORTS    NEVADA/IDAHO/WYOMING

CITY           SKY/WX    TMP DP  RH WIND       PRES   REMARKS
LAS VEGAS, NV  PTCLDY    79  67  66 SW3       30.05S
ELY, NY        PTCLDY    52  51  97 MISG      30.31R
ELKO, NV       CLEAR     61  52  72 CALM      30.20R
POCATELLO, ID  PTCLDY    62  56  80 S6        30.15S
BURLEY, ID     LGT RAIN  65  58  78 CALM      30.13R
FORT BRIDGER,  CLOUDY    58  51  77 CALM      30.35R
EVANSTON, WY   CLOUDY    57  54  89 E3        30.32S
ROCK SPRINGS,  CLOUDY    57  53  86 E5        30.31R
KEMMERER, WY     N/A     55  46  71 N6        30.34F

$$




USA.gov is the U.S. government's official web portal to all federal, state and local government web resources and services.